This demonstration page uses our WeatherBlox Daily Observations layout. Learn more.

Left ArrowRight Arrow

34.74481, -87.66753

Hourly Observations for July 24, 2022

Temp ( °F °C ) Dew Point ( °F °C ) Humidity (%) Winds ( mph kmh ) Pressure ( in mb ) Visibility ( mi km ) Precip ( " mm )
12:53 am 00:53 Clear 76 24.4 72 22.2 88 88 Calm 30.07 1018 10 16 0.00 0.00
1:53 am 01:53 Clear 74 23.3 71 21.7 91 91 Calm 30.06 1018 10 16 0.00 0.00
2:53 am 02:53 Clear 75 23.9 72 22.2 90 90 S 3 6 30.05 1018 10 16 0.00 0.00
3:53 am 03:53 Clear 76 24.4 72 22.2 88 88 SSW 5 7 30.06 1018 10 16 0.00 0.00
4:53 am 04:53 Clear 76 24.4 72 22.2 88 88 Calm 30.06 1018 10 16 0.00 0.00
5:53 am 05:53 Clear 75 23.9 72 22.2 90 90 SSE 5 7 30.09 1019 10 16 0.00 0.00
6:53 am 06:53 Sunny 76 24.4 73 22.8 91 91 SE 3 6 30.09 1019 10 16 0.00 0.00
7:53 am 07:53 Partly Cloudy 79 26.1 74 23.3 85 85 S 3 6 30.09 1019 10 16 0.00 0.00
8:53 am 08:53 Partly Cloudy 84 28.9 74 23.3 72 72 SW 9 15 30.09 1019 10 16 0.00 0.00
9:53 am 09:53 Mostly Cloudy 87 30.6 74 23.3 65 65 SW 13 20 30.09 1019 10 16 0.00 0.00
10:50 am 10:50 Mostly Cloudy 88 31 73 23 62 62 SW 10 17 30.08 1019 10 16 0.00 0.00
10:53 am 10:53 Mostly Cloudy 88 31.1 74 23.3 63 63 WSW 10 17 30.09 1019 10 16 0.00 0.00
11:12 am 11:12 Mostly Cloudy 90 32.2 74 23.3 59 59 W 9 15 30.07 1018 10 16 0.00 0.00
11:53 am 11:53 Mostly Cloudy 89 31.7 74 23.3 61 61 WSW 9 15 30.08 1019 10 16 0.00 0.00
12:53 pm 12:53 Mostly Cloudy 92 33.3 74 23.3 56 56 WSW 9 15 30.06 1018 10 16 0.00 0.00
1:53 pm 13:53 Mostly Cloudy 94 34.4 73 22.8 51 51 SW 8 13 30.03 1017 10 16 0.00 0.00
2:53 pm 14:53 Mostly Cloudy 92 33.3 72 22.2 52 52 SW 7 11 30.01 1016 10 16 0.00 0.00
3:53 pm 15:53 Mostly Cloudy 93 33.9 74 23.3 54 54 SSW 8 13 30.00 1016 10 16 0.00 0.00
4:53 pm 16:53 Mostly Sunny 92 33.3 72 22.2 52 52 WSW 8 13 30.00 1016 10 16 0.00 0.00
5:53 pm 17:53 Mostly Cloudy 90 32.2 73 22.8 58 58 WSW 7 11 30.00 1016 10 16 0.00 0.00
6:53 pm 18:53 Cloudy 85 29.4 75 23.9 72 72 WSW 8 13 29.99 1016 10 16 0.00 0.00
7:53 pm 19:53 Partly Cloudy 85 29.4 75 23.9 72 72 S 7 11 30.00 1016 10 16 0.00 0.00
8:53 pm 20:53 Clear 83 28.3 74 23.3 74 74 SSW 5 7 30.02 1017 10 16 0.00 0.00
9:53 pm 21:53 Cloudy 83 28.3 74 23.3 74 74 SSW 5 7 30.05 1018 10 16 0.00 0.00
10:53 pm 22:53 Clear 82 27.8 74 23.3 77 77 SSW 5 7 30.04 1017 10 16 0.00 0.00
11:53 pm 23:53 Clear 81 27.2 73 22.8 77 77 S 7 11 30.03 1017 10 16 0.00 0.00

Powered by AerisWeather